Location: St. Louis
(38.6270°N, 90.1994°W)
Time: 18:47:30
(UTC-05:00)

deb Delta - Pass Details

Date: 10 July 2022
Orbit: 1084 x 1202 km, 99.8° (Epoch: 13 August)

Event Time Altitude Azimuth Distance (km) Brightness Sun altitude
Exits shadow 02:49:03 40° 242° (WSW) 1,704 ? -24.6°
Maximum altitude 02:50:02 41° 261° (W) 1,658 ? -24.5°
Drops below altitude 10° 02:56:42 10° 331° (NNW) 3,110 ? -23.9°
Sets 02:59:30 0° 338° (NNW) 4,063 ? -23.6°
